Total_Precipitation_Accumulation
0.10 0.23 0.57 0.80 0.85 0.83 0.80 0.78 0.73 0.68 0.68 0.72 0.80 0.89 0.93 0.87 0.84 0.83 0.81 0.83 0.84 0.88 0.96 1.07 1.07 1.06 1.02 0.96 0.83 0.75 0.71 0.72 0.76 0.71 0.76 0.84 0.86 0.81 0.72 0.64 0.51 0.57 0.85
0.09 0.23 0.53 0.71 0.80 0.83 0.83 0.79 0.71 0.63 0.64 0.71 0.78 0.83 0.91 0.89 0.86 0.87 0.85 0.87 0.88 0.91 0.99 1.10 1.10 1.07 1.07 0.92 0.77 0.65 0.61 0.55 0.55 0.53 0.53 0.55 0.73 0.80 0.73 0.71 0.66 0.87 0.99
0.09 0.22 0.45 0.66 0.76 0.83 0.83 0.77 0.69 0.67 0.68 0.75 0.80 0.81 0.83 0.88 0.91 0.96 0.96 0.92 0.90 0.88 0.89 0.97 1.04 1.03 0.98 0.88 0.74 0.63 0.57 0.49 0.42 0.40 0.41 0.37 0.60 0.88 0.85 0.83 0.80 1.02 1.01
0.10 0.20 0.36 0.62 0.75 0.81 0.83 0.80 0.79 0.82 0.81 0.87 0.90 0.86 0.82 0.86 0.93 0.99 0.95 0.92 0.91 0.88 0.85 0.87 0.88 0.90 0.79 0.68 0.67 0.64 0.60 0.51 0.38 0.32 0.22 0.25 0.54 0.93 0.97 0.88 0.85 0.92 0.97
0.14 0.21 0.41 0.66 0.80 0.84 0.89 0.87 0.85 0.89 0.94 0.97 0.97 0.96 0.95 0.96 0.97 1.02 0.98 0.93 0.88 0.86 0.84 0.84 0.80 0.78 0.74 0.68 0.67 0.66 0.62 0.51 0.37 0.26 0.16 0.20 0.45 0.87 0.87 0.83 0.80 0.83 0.88
0.20 0.27 0.47 0.69 0.84 0.90 0.95 0.94 0.95 0.98 1.00 1.03 0.99 0.99 1.02 1.10 1.09 1.01 0.96 0.96 0.88 0.83 0.83 0.84 0.80 0.78 0.72 0.67 0.68 0.71 0.68 0.57 0.38 0.23 0.19 0.21 0.33 0.67 0.82 0.88 0.90 0.87 0.81
0.29 0.34 0.52 0.75 0.91 1.01 1.07 1.09 1.13 1.15 1.15 1.13 1.08 1.03 1.02 1.05 1.10 1.04 0.93 0.89 0.84 0.81 0.83 0.84 0.80 0.79 0.77 0.71 0.68 0.72 0.77 0.62 0.40 0.37 0.33 0.31 0.40 0.67 0.82 0.93 0.96 0.91 0.91
0.35 0.43 0.63 0.92 1.05 1.10 1.17 1.15 1.24 1.31 1.33 1.30 1.21 1.11 1.09 1.08 1.06 1.05 0.94 0.89 0.87 0.82 0.78 0.76 0.78 0.73 0.71 0.70 0.70 0.71 0.74 0.59 0.44 0.46 0.52 0.50 0.58 0.79 0.86 0.92 0.95 0.94 0.98
0.38 0.50 0.71 0.96 1.11 1.26 1.28 1.22 1.24 1.27 1.34 1.33 1.26 1.18 1.13 1.08 1.05 1.02 1.00 0.91 0.87 0.88 0.83 0.74 0.73 0.74 0.65 0.64 0.65 0.64 0.63 0.57 0.54 0.62 0.59 0.70 0.75 0.95 1.02 0.98 0.97 1.01 1.02
0.47 0.60 0.78 0.96 1.09 1.23 1.33 1.27 1.22 1.24 1.29 1.37 1.32 1.23 1.18 1.15 1.12 1.04 0.93 0.97 0.91 0.85 0.87 0.81 0.74 0.79 0.76 0.66 0.61 0.59 0.55 0.51 0.49 0.55 0.69 0.69 0.81 1.12 1.24 1.12 1.00 0.99 1.05
0.63 0.75 0.89 1.01 1.12 1.27 1.36 1.32 1.34 1.32 1.36 1.43 1.41 1.36 1.29 1.25 1.24 1.14 0.96 0.94 0.97 0.92 0.89 0.88 0.81 0.81 0.82 0.70 0.61 0.58 0.54 0.43 0.44 0.55 0.62 0.64 0.80 1.12 1.36 1.24 1.10 1.00 1.02
0.67 0.82 0.95 1.05 1.18 1.38 1.46 1.49 1.57 1.47 1.39 1.42 1.33 1.33 1.35 1.33 1.38 1.27 1.19 1.06 1.01 1.01 1.00 0.97 0.92 0.89 0.85 0.74 0.64 0.59 0.46 0.36 0.35 0.37 0.43 0.55 0.69 0.98 1.34 1.38 1.28 1.18 1.15
0.67 0.83 1.00 1.13 1.28 1.47 1.51 1.51 1.53 1.53 1.43 1.44 1.41 1.32 1.32 1.41 1.36 1.40 1.37 1.36 1.26 1.17 1.13 1.10 1.08 0.99 0.91 0.84 0.76 0.65 0.50 0.44 0.40 0.34 0.33 0.42 0.54 0.80 1.09 1.26 1.42 1.43 1.42
0.75 0.88 1.03 1.22 1.41 1.60 1.62 1.65 1.56 1.47 1.41 1.36 1.44 1.43 1.39 1.34 1.25 1.18 1.20 1.18 1.17 1.14 1.13 1.15 1.10 1.03 1.00 0.95 0.85 0.74 0.66 0.59 0.49 0.46 0.40 0.43 0.46 0.67 0.96 1.14 1.32 1.51 1.64
0.80 0.92 1.03 1.20 1.38 1.62 1.85 1.84 1.80 1.65 1.50 1.43 1.45 1.47 1.41 1.35 1.26 1.15 1.08 1.12 1.09 1.05 1.04 1.05 0.99 0.93 0.92 0.90 0.88 0.84 0.80 0.68 0.58 0.56 0.51 0.51 0.49 0.56 0.80 1.02 1.20 1.46 1.71
0.85 0.98 1.09 1.22 1.33 1.55 1.82 1.92 1.90 1.81 1.73 1.68 1.55 1.48 1.46 1.45 1.36 1.26 1.13 1.09 1.07 1.04 1.04 1.00 0.96 0.90 0.85 0.79 0.75 0.75 0.81 0.79 0.71 0.64 0.56 0.54 0.52 0.52 0.67 0.89 1.13 1.38 1.67
0.93 1.05 1.19 1.31 1.44 1.53 1.66 1.92 1.99 1.99 1.92 1.86 1.70 1.64 1.64 1.57 1.52 1.46 1.33 1.17 1.05 1.01 1.04 1.06 1.01 0.97 0.89 0.79 0.71 0.69 0.70 0.71 0.73 0.69 0.61 0.57 0.57 0.56 0.62 0.80 1.00 1.23 1.52
1.02 1.10 1.31 1.42 1.52 1.55 1.58 1.83 1.97 2.02 2.10 2.09 2.03 1.90 1.83 1.79 1.73 1.66 1.56 1.42 1.28 1.15 1.08 1.07 1.02 0.96 0.90 0.84 0.77 0.70 0.67 0.65 0.62 0.61 0.58 0.57 0.60 0.61 0.65 0.75 0.86 1.10 1.36
0.98 1.14 1.37 1.47 1.53 1.60 1.62 1.75 1.97 2.02 2.06 2.14 2.25 2.24 2.15 2.07 1.96 1.86 1.74 1.65 1.59 1.46 1.29 1.15 1.08 0.98 0.89 0.83 0.82 0.79 0.74 0.69 0.65 0.63 0.57 0.53 0.52 0.55 0.60 0.66 0.74 0.89 1.11
0.99 1.17 1.42 1.60 1.66 1.71 1.78 1.77 1.93 2.11 2.02 1.96 2.06 2.16 2.25 2.33 2.25 2.14 1.98 1.83 1.79 1.71 1.57 1.40 1.26 1.13 0.99 0.89 0.89 0.89 0.84 0.80 0.73 0.66 0.61 0.57 0.54 0.53 0.57 0.61 0.63 0.70 0.87
1.04 1.15 1.36 1.56 1.67 1.71 1.77 1.75 1.68 1.83 1.94 1.85 1.75 1.90 2.11 2.27 2.43 2.45 2.26 2.10 2.00 1.87 1.64 1.54 1.50 1.40 1.23 1.08 1.08 1.10 1.00 0.89 0.86 0.75 0.64 0.58 0.56 0.52 0.53 0.60 0.64 0.64 0.73
1.03 1.09 1.27 1.52 1.63 1.61 1.59 1.66 1.66 1.69 1.77 1.85 1.81 1.81 1.93 2.15 2.36 2.60 2.51 2.33 2.19 2.07 1.94 1.72 1.61 1.59 1.50 1.29 1.18 1.23 1.27 1.22 1.03 0.84 0.72 0.61 0.58 0.57 0.56 0.57 0.62 0.65 0.66
1.03 1.08 1.12 1.36 1.64 1.67 1.65 1.78 1.82 1.91 1.94 1.92 1.82 1.79 1.86 1.97 2.10 2.22 2.32 2.22 2.22 2.17 2.09 1.95 1.77 1.69 1.70 1.55 1.30 1.37 1.46 1.32 1.05 0.90 0.80 0.70 0.62 0.60 0.58 0.57 0.59 0.63 0.66
1.00 1.18 1.21 1.28 1.53 1.75 1.74 1.73 1.72 1.78 1.79 1.78 1.71 1.64 1.75 1.95 2.04 2.08 2.15 2.16 2.02 1.96 1.92 1.92 1.88 1.75 1.77 1.77 1.57 1.33 1.23 1.18 1.23 1.11 0.89 0.82 0.79 0.73 0.66 0.60 0.58 0.63 0.67
1.05 1.24 1.34 1.38 1.42 1.62 1.70 1.64 1.62 1.63 1.66 1.76 1.77 1.69 1.65 1.80 2.01 2.11 2.09 2.12 2.13 1.98 1.82 1.76 1.82 1.83 1.77 1.72 1.63 1.46 1.27 1.07 1.03 1.19 1.05 0.90 0.93 0.90 0.84 0.76 0.70 0.71 0.72
1.13 1.30 1.41 1.49 1.41 1.47 1.70 1.68 1.56 1.52 1.53 1.62 1.72 1.80 1.78 1.73 1.81 1.96 2.06 2.03 2.03 2.06 1.99 1.81 1.74 1.79 1.75 1.69 1.63 1.54 1.46 1.35 1.15 1.12 1.08 0.88 0.86 0.86 0.91 0.95 0.93 0.89 0.87